Stations météo

réclame
Mon MeteoGroup
Timrå/Midlanda, Suède (2366): Température de l'air & dewpoint: 17.05.2018 22:00:00 - 23.05.2018 22:00:00 (CEST)Timrå/Midlanda, Suède (2366): Vitesse du vent: 17.05.2018 22:00:00 - 23.05.2018 22:00:00 (CEST)Timrå/Midlanda, Suède (2366): Direction du vent: 17.05.2018 22:00:00 - 23.05.2018 22:00:00 (CEST)Timrå/Midlanda, Suède (2366): reduced air pressure: 17.05.2018 22:00:00 - 23.05.2018 22:00:00 (CEST)Timrå/Midlanda, Suède (2366): visibility: 17.05.2018 22:00:00 - 23.05.2018 22:00:00 (CEST)
Date & Time tt [°C] td [°C] ff [km/h] ff [knt] dd ppp [hPa] vv [km]
23.05.2018 22:00:00 8,4 2,2 5 3 E 1029,9 10
23.05.2018 21:00:00 9,8 0,5 9 5 SSE 1029,3 10
23.05.2018 20:00:00 11,6 1,4 13 7 SSE 1028,8 10
23.05.2018 19:00:00 12,3 0,9 13 7 SSE 1028,5 10
23.05.2018 18:00:00 12,4 1,7 16 9 SSE 1028,4 10
23.05.2018 17:00:00 13,1 1,2 18 10 SSE 1028,3 10
23.05.2018 16:00:00 13,6 1,9 18 10 SSE 1028,2 10
23.05.2018 15:00:00 14,5 1,4 18 10 SSE 1028,0 10
23.05.2018 14:00:00 13,8 -0,3 18 10 SSE 1028,0 10
23.05.2018 13:00:00 14,7 0,9 18 10 SSE 1027,7 10
23.05.2018 12:00:00 15,4 1,8 16 9 SSE 1027,1 10
23.05.2018 11:00:00 14,8 1,4 14 8 SSE 1026,9 35
23.05.2018 10:00:00 14,5 0,5 2 1 - 1026,6 10
23.05.2018 09:00:00 13,4 0,3 11 6 N 1026,0 10
23.05.2018 08:00:00 11,8 0,5 21 11 NW 1025,5 10
23.05.2018 07:00:00 11,2 0,8 22 12 NNW 1024,9 10
23.05.2018 06:00:00 10,6 3,3 15 8 NNW 1024,2 10
23.05.2018 05:00:00 10,5 4,3 13 7 NW 1023,6 10
23.05.2018 04:00:00 11,1 4,7 22 12 NW 1022,8 10
23.05.2018 03:00:00 10,8 5,2 11 6 NW 1022,3 10
23.05.2018 02:00:00 12,1 5,3 16 9 WNW 1021,4 10
23.05.2018 01:00:00 13,2 5,6 18 10 NW 1020,3 10
23.05.2018 00:00:00 15,4 5,9 28 15 NW 1019,2 10
22.05.2018 23:00:00 17,1 5,7 21 11 NNW 1018,3 10
22.05.2018 22:00:00 12,3 8,8 5 3 - 1017,8 10
22.05.2018 21:00:00 14,2 9,3 5 3 - 1017,4 10
22.05.2018 20:00:00 16,7 9,4 5 3 S 1016,9 10
22.05.2018 19:00:00 18,8 9,1 4 2 - 1016,8 10
22.05.2018 18:00:00 18,7 8,0 15 8 SE 1017,1 10
22.05.2018 17:00:00 18,9 7,4 15 8 SE 1017,5 10
22.05.2018 16:00:00 19,4 7,7 24 13 SE 1017,5 10
22.05.2018 15:00:00 18,5 8,2 16 9 SE 1017,9 10
22.05.2018 14:00:00 17,5 9,1 16 9 SSE 1018,3 10
22.05.2018 13:00:00 17,9 9,3 13 7 SE 1018,4 10
22.05.2018 12:00:00 18,5 9,6 8 4 SSE 1018,8 10
22.05.2018 11:00:00 16,1 8,4 9 5 SE 1019,6 10
22.05.2018 10:00:00 16,4 8,9 8 4 SSE 1019,8 10
22.05.2018 09:00:00 14,7 8,6 9 5 SE 1020,0 10
22.05.2018 08:00:00 13,6 8,2 0 0 N 1020,2 10
22.05.2018 07:00:00 12,8 7,8 0 0 N 1020,7 10
22.05.2018 06:00:00 9,4 6,6 0 0 N 1020,9 10
22.05.2018 05:00:00 7,0 6,4 0 0 N 1020,8 10
22.05.2018 04:00:00 5,7 5,3 0 0 N 1021,0 1,1
22.05.2018 03:00:00 6,0 5,5 0 0 N 1020,7 4,8
22.05.2018 02:00:00 6,3 5,9 0 0 N 1020,7 0,2
22.05.2018 01:00:00 7,4 6,8 0 0 N 1021,0 10
22.05.2018 00:00:00 8,2 7,4 0 0 N 1021,3 10
21.05.2018 23:00:00 9,2 7,4 0 0 N 1021,3 10
21.05.2018 22:00:00 11,0 7,6 0 0 N 1021,4 10
21.05.2018 21:00:00 13,0 7,4 4 2 - 1021,2 10
21.05.2018 20:00:00 14,9 7,4 4 2 S 1021,1 10
21.05.2018 19:00:00 20,9 6,1 11 6 ESE 1021,0 10
21.05.2018 18:00:00 22,2 5,0 15 8 SE 1021,2 10
21.05.2018 17:00:00 22,9 5,1 22 12 SE 1021,1 10
21.05.2018 16:00:00 23,3 5,7 21 11 SE 1021,3 10
21.05.2018 15:00:00 23,2 7,2 21 11 SE 1021,4 10
21.05.2018 14:00:00 23,4 6,3 16 9 SE 1021,7 10
21.05.2018 13:00:00 24,5 5,3 13 7 SE 1021,7 10
21.05.2018 12:00:00 23,5 4,5 11 6 SSE 1021,9 10
21.05.2018 11:00:00 23,2 6,2 4 2 - 1022,0 10
21.05.2018 10:00:00 21,2 6,7 9 5 SSE 1022,1 10
21.05.2018 09:00:00 20,2 7,2 11 6 SSE 1022,1 10
21.05.2018 08:00:00 18,2 7,4 4 2 - 1022,1 10
21.05.2018 07:00:00 13,1 6,3 4 2 NNW 1022,2 10
21.05.2018 06:00:00 9,8 6,0 4 2 - 1022,1 10
21.05.2018 05:00:00 7,2 5,7 5 3 NNW 1021,8 10
21.05.2018 04:00:00 6,0 5,1 2 1 NW 1021,6 10
21.05.2018 03:00:00 6,7 5,3 5 3 NW 1021,1 10
21.05.2018 02:00:00 7,5 6,0 0 0 N 1020,9 10
21.05.2018 01:00:00 8,4 5,9 2 1 - 1020,5 10
21.05.2018 00:00:00 9,8 6,0 4 2 NNW 1020,2 10
20.05.2018 23:00:00 12,1 6,7 0 0 N 1020,0 10
20.05.2018 22:00:00 16,2 5,3 4 2 - 1019,8 10
20.05.2018 21:00:00 21,2 1,3 8 4 SSW 1019,4 10
20.05.2018 20:00:00 23,4 0,4 8 4 SSW 1018,8 10
20.05.2018 19:00:00 24,1 0,6 13 7 SSW 1018,8 10
20.05.2018 18:00:00 23,0 4,6 4 2 - 1018,8 10
20.05.2018 17:00:00 20,8 7,1 5 3 - 1019,0 10
20.05.2018 16:00:00 21,3 7,1 8 4 SSE 1019,2 10
20.05.2018 15:00:00 19,5 7,1 16 9 SSE 1019,8 10
20.05.2018 14:00:00 17,7 5,8 11 6 SE 1020,7 10
20.05.2018 13:00:00 16,4 4,7 18 10 SSE 1021,0 10
20.05.2018 12:00:00 17,0 5,0 9 5 SE 1021,3 10
20.05.2018 11:00:00 16,3 4,4 4 2 - 1021,7 10
20.05.2018 10:00:00 15,3 3,7 4 2 - 1022,2 10
20.05.2018 09:00:00 13,8 4,0 8 4 SSE 1022,5 10
20.05.2018 08:00:00 12,5 4,8 0 0 N 1022,4 10
20.05.2018 07:00:00 9,3 4,0 0 0 N 1022,4 10
20.05.2018 06:00:00 7,3 3,5 5 3 NW 1022,4 10
20.05.2018 05:00:00 4,8 3,2 0 0 N 1022,4 10
20.05.2018 04:00:00 4,7 2,4 4 2 - 1022,6 10
20.05.2018 03:00:00 5,1 2,8 2 1 - 1022,5 10
20.05.2018 02:00:00 4,7 2,6 0 0 N 1022,5 10
20.05.2018 01:00:00 5,2 2,8 5 3 N 1022,2 10
20.05.2018 00:00:00 6,3 3,7 5 3 NNW 1021,9 10
19.05.2018 23:00:00 6,8 4,3 8 4 NNW 1021,4 10
19.05.2018 22:00:00 8,8 4,9 0 0 N 1021,0 10
19.05.2018 21:00:00 13,2 2,5 0 0 N 1020,7 10
19.05.2018 20:00:00 15,2 2,3 11 6 SE 1020,3 10
19.05.2018 19:00:00 16,0 2,2 13 7 SE 1020,1 10
19.05.2018 18:00:00 16,6 1,2 21 11 SE 1020,2 10
19.05.2018 17:00:00 16,4 0,7 26 14 SE 1020,1 10
19.05.2018 16:00:00 17,0 1,1 26 14 SE 1020,0 10
19.05.2018 15:00:00 16,9 2,0 24 13 SE 1020,1 10
19.05.2018 14:00:00 16,8 0,4 26 14 SE 1020,5 10
19.05.2018 13:00:00 16,8 0,4 24 13 SE 1020,5 10
19.05.2018 12:00:00 15,8 0,3 18 10 SSE 1020,9 10
19.05.2018 11:00:00 17,1 1,6 13 7 SSE 1021,2 10
19.05.2018 10:00:00 15,3 1,0 9 5 ESE 1021,6 10
19.05.2018 09:00:00 13,1 0,6 4 2 - 1021,8 10
19.05.2018 08:00:00 10,3 1,0 0 0 N 1022,0 10
19.05.2018 07:00:00 6,5 0,0 5 3 NNW 1022,0 10
19.05.2018 06:00:00 4,3 -0,7 13 7 NW 1021,9 10
19.05.2018 05:00:00 2,9 -0,9 13 7 NW 1021,9 10
19.05.2018 04:00:00 2,4 -0,9 9 5 NW 1022,0 10
19.05.2018 03:00:00 3,4 -0,7 11 6 NW 1021,9 10
19.05.2018 02:00:00 4,3 -0,4 9 5 NW 1021,6 10
19.05.2018 01:00:00 5,3 0,0 8 4 WNW 1021,5 10
19.05.2018 00:00:00 6,6 0,1 8 4 WNW 1021,4 10
18.05.2018 23:00:00 6,8 2,3 8 4 NW 1021,1 10
18.05.2018 22:00:00 7,9 2,8 5 3 N 1020,7 10
18.05.2018 21:00:00 13,2 -2,0 11 6 NNW 1020,3 10
18.05.2018 20:00:00 15,0 -2,3 15 8 NW 1019,9 10
18.05.2018 19:00:00 16,0 -2,4 16 9 NW 1019,8 10
18.05.2018 18:00:00 16,4 -2,6 15 8 NW 1019,7 10
18.05.2018 17:00:00 16,2 -2,2 22 12 N 1019,8 10
18.05.2018 16:00:00 16,1 -2,5 18 10 WNW 1019,8 10
18.05.2018 15:00:00 16,0 -2,6 21 11 NNW 1019,7 10
18.05.2018 14:00:00 15,7 -1,6 22 12 NNW 1019,7 10
18.05.2018 13:00:00 15,4 -1,1 22 12 NNW 1020,0 10
18.05.2018 12:00:00 13,9 -0,4 18 10 NW 1020,3 10
18.05.2018 11:00:00 13,1 -0,2 21 11 NW 1020,4 10
18.05.2018 10:00:00 13,0 -0,2 24 13 NW 1020,4 10
18.05.2018 09:00:00 11,8 0,3 22 12 NW 1020,5 10
18.05.2018 08:00:00 10,6 0,0 21 11 NW 1020,4 10
18.05.2018 07:00:00 8,9 -0,2 18 10 NW 1020,3 10
18.05.2018 06:00:00 7,3 -1,2 15 8 NW 1020,4 10
18.05.2018 05:00:00 6,0 -2,1 8 4 NW 1020,2 10
18.05.2018 04:00:00 5,6 -2,6 15 8 NW 1020,0 10
18.05.2018 03:00:00 6,3 -2,8 18 10 NW 1019,7 10
18.05.2018 02:00:00 5,8 -2,3 16 9 NW 1019,4 10
18.05.2018 01:00:00 5,9 -1,4 15 8 WNW 1019,3 10
18.05.2018 00:00:00 6,4 -0,2 13 7 NW 1019,4 10
17.05.2018 23:00:00 5,7 1,5 8 4 NW 1019,0 10
17.05.2018 22:00:00 7,2 3,0 5 3 NNW 1018,5 10

tt = Température de l'air
td = dewpoint
ff = Vitesse du vent
dd = Direction du vent
ppp = reduced air pressure
vv = visibility

stations d'obs. à proximité